| time (UTC) | temp F | wind direction | speed MPH | gust MPH | rain 1hr in | rain 24hr in | rain mn in | humidity % | barometer mb |
| 20260502163104 | 65 | 334 | 1.0 | 10.0 | 0.00 | 0.00 | 0.00 | 41 | 1020.9 |
| 20260502163021 | 65 | 16 | 2.0 | 10.0 | 0.00 | 0.00 | 0.00 | 42 | 1020.3 |
| 20260502161603 | 65 | 342 | 2.0 | 9.0 | 0.00 | 0.00 | 0.00 | 43 | 1020.9 |
| 20260502161512 | 65 | 354 | 1.0 | 10.0 | 0.00 | 0.00 | 0.00 | 43 | 1020.3 |
| 20260502151545 | 63 | 45 | 1.0 | 9.0 | 0.00 | 0.00 | 0.00 | 45 | 1020.2 |
| 20260502151526 | 63 | 298 | 1.0 | 9.0 | 0.00 | 0.00 | 0.00 | 47 | 1020.8 |
| 20260502150120 | 63 | 295 | 1.0 | 6.0 | 0.00 | 0.00 | 0.00 | 50 | 1020.9 |
| 20260502140126 | 57 | 284 | 0.0 | 1.0 | 0.00 | 0.00 | 0.00 | 77 | 1020.9 |
| 20260502123031 | 49 | 304 | 0.0 | 0.0 | 0.00 | 0.00 | 0.00 | 95 | 1019.9 |
| 20260502123029 | 49 | 49 | 0.0 | 0.0 | 0.00 | 0.00 | 0.00 | 94 | 1019.4 |
| 20260502121524 | 48 | 49 | 0.0 | 0.0 | 0.00 | 0.00 | 0.00 | 94 | 1019.1 |
| 20260502121519 | 48 | 304 | 0.0 | 0.0 | 0.00 | 0.00 | 0.00 | 94 | 1019.6 |
| 20260502114519 | 47 | 49 | 0.0 | 0.0 | 0.00 | 0.00 | 0.00 | 94 | 1018.5 |
| 20260502114513 | 47 | 304 | 0.0 | 0.0 | 0.00 | 0.00 | 0.00 | 94 | 1019.2 |
| 20260502113018 | 48 | 48 | 0.0 | 0.0 | 0.00 | 0.00 | 0.00 | 94 | 1018.4 |
| 20260502113011 | 48 | 304 | 0.0 | 0.0 | 0.00 | 0.00 | 0.00 | 95 | 1019.1 |
| 20260502111527 | 48 | 48 | 0.0 | 0.0 | 0.00 | 0.00 | 0.00 | 93 | 1018.3 |
| 20260502111511 | 48 | 304 | 0.0 | 0.0 | 0.00 | 0.00 | 0.00 | 94 | 1019.0 |
| 20260502110034 | 48 | 49 | 0.0 | 0.0 | 0.00 | 0.00 | 0.00 | 93 | 1018.2 |
| 20260502110014 | 48 | 304 | 0.0 | 0.0 | 0.00 | 0.00 | 0.00 | 93 | 1018.9 |
| 20260502104548 | 48 | 304 | 0.0 | 0.0 | 0.00 | 0.00 | 0.00 | 92 | 1018.7 |
| 20260502104525 | 48 | 49 | 0.0 | 0.0 | 0.00 | 0.00 | 0.00 | 92 | 1018.1 |
| 20260502103122 | 48 | 304 | 0.0 | 0.0 | 0.00 | 0.00 | 0.00 | 91 | 1018.7 |
| 20260502103024 | 49 | 49 | 0.0 | 0.0 | 0.00 | 0.00 | 0.00 | 90 | 1018.0 |
| 20260502101524 | 49 | 49 | 0.0 | 0.0 | 0.00 | 0.00 | 0.00 | 89 | 1017.8 |
| 20260502091526 | 51 | 51 | 0.0 | 1.0 | 0.00 | 0.00 | 0.00 | 89 | 1017.5 |
| 20260502091518 | 51 | 306 | 0.0 | 1.0 | 0.00 | 0.00 | 0.00 | 89 | 1018.3 |
| 20260502071505 | 54 | 14 | 0.0 | 1.0 | 0.00 | 0.00 | 0.00 | 86 | 1017.5 |
| 20260502070010 | 54 | 26 | 0.0 | 1.0 | 0.00 | 0.00 | 0.00 | 84 | 1017.4 |
| 20260502070002 | 54 | 281 | 0.0 | 1.0 | 0.00 | 0.00 | 0.00 | 85 | 1018.2 |
| 20260502064614 | 54 | 302 | 0.0 | 1.0 | 0.00 | 0.00 | 0.00 | 85 | 1018.2 |
| 20260502064505 | 54 | 53 | 0.0 | 1.0 | 0.00 | 0.00 | 0.00 | 84 | 1017.5 |
| 20260502063107 | 55 | 306 | 0.0 | 1.0 | 0.00 | 0.00 | 0.00 | 85 | 1018.4 |
| 20260502063017 | 55 | 40 | 0.0 | 1.0 | 0.00 | 0.00 | 0.00 | 85 | 1017.8 |
| 20260502061613 | 54 | 286 | 0.0 | 1.0 | 0.00 | 0.00 | 0.00 | 83 | 1018.4 |
| 20260502061505 | 54 | 31 | 0.0 | 2.0 | 0.00 | 0.00 | 0.00 | 83 | 1017.7 |
| 20260502060056 | 55 | 295 | 0.0 | 2.0 | 0.00 | 0.00 | 0.00 | 83 | 1018.6 |
| 20260502060008 | 55 | 11 | 0.0 | 2.0 | 0.00 | 0.00 | 0.00 | 82 | 1017.8 |
| 20260502054555 | 55 | 278 | 0.0 | 1.0 | 0.00 | 0.00 | 0.00 | 84 | 1018.6 |
| 20260502054518 | 55 | 22 | 0.0 | 1.0 | 0.00 | 0.00 | 0.00 | 84 | 1017.9 |
| 20260502053103 | 55 | 294 | 0.0 | 1.0 | 0.00 | 0.00 | 0.00 | 83 | 1018.6 |
| 20260502053005 | 55 | 39 | 0.0 | 1.0 | 0.00 | 0.00 | 0.00 | 82 | 1017.9 |
| 20260502051552 | 55 | 275 | 0.0 | 1.0 | 0.00 | 0.00 | 0.00 | 82 | 1018.6 |
| 20260502051509 | 55 | 20 | 0.0 | 1.0 | 0.00 | 0.00 | 0.00 | 82 | 1017.8 |
| 20260502050050 | 55 | 313 | 0.0 | 0.0 | 0.00 | 0.00 | 0.00 | 82 | 1018.5 |
| 20260502050006 | 55 | 58 | 0.0 | 0.0 | 0.00 | 0.00 | 0.00 | 81 | 1017.8 |
| 20260502044550 | 55 | 332 | 0.0 | 0.0 | 0.00 | 0.00 | 0.00 | 80 | 1018.6 |
| 20260502044509 | 55 | 77 | 0.0 | 0.0 | 0.00 | 0.00 | 0.00 | 79 | 1017.7 |
| 20260502043058 | 56 | 332 | 0.0 | 0.0 | 0.00 | 0.00 | 0.00 | 77 | 1018.5 |
| 20260502043010 | 56 | 77 | 0.0 | 0.0 | 0.00 | 0.00 | 0.00 | 76 | 1017.8 |
| 20260502041553 | 56 | 333 | 0.0 | 0.0 | 0.00 | 0.00 | 0.00 | 77 | 1018.7 |
| 20260502041508 | 56 | 78 | 0.0 | 0.0 | 0.00 | 0.00 | 0.00 | 77 | 1017.8 |
| 20260502040054 | 56 | 333 | 0.0 | 0.0 | 0.00 | 0.00 | 0.00 | 77 | 1018.6 |
| 20260502040011 | 56 | 78 | 0.0 | 0.0 | 0.00 | 0.00 | 0.00 | 76 | 1017.7 |
| 20260502034547 | 56 | 333 | 0.0 | 0.0 | 0.00 | 0.00 | 0.00 | 76 | 1018.5 |
| 20260502034520 | 56 | 78 | 0.0 | 0.0 | 0.00 | 0.00 | 0.00 | 76 | 1017.7 |
| 20260502033046 | 57 | 332 | 0.0 | 0.0 | 0.00 | 0.00 | 0.00 | 76 | 1018.5 |
| 20260502033010 | 57 | 78 | 0.0 | 0.0 | 0.00 | 0.00 | 0.00 | 76 | 1017.6 |
| 20260502031549 | 57 | 332 | 0.0 | 0.0 | 0.00 | 0.00 | 0.00 | 77 | 1018.4 |
| 20260502031514 | 57 | 77 | 0.0 | 0.0 | 0.00 | 0.00 | 0.00 | 76 | 1017.5 |
| 20260502030046 | 58 | 332 | 0.0 | 0.0 | 0.00 | 0.00 | 0.00 | 76 | 1018.5 |
| 20260502030013 | 58 | 77 | 0.0 | 0.0 | 0.00 | 0.00 | 0.00 | 75 | 1017.6 |
| 20260502024556 | 58 | 332 | 0.0 | 0.0 | 0.00 | 0.00 | 0.00 | 77 | 1018.3 |
| 20260502024510 | 58 | 77 | 0.0 | 0.0 | 0.00 | 0.00 | 0.00 | 76 | 1017.4 |
| 20260502023045 | 59 | 333 | 0.0 | 0.0 | 0.00 | 0.00 | 0.00 | 73 | 1018.1 |
| 20260502023013 | 59 | 78 | 0.0 | 0.0 | 0.00 | 0.00 | 0.00 | 72 | 1017.4 |
| 20260502021550 | 59 | 333 | 0.0 | 0.0 | 0.00 | 0.00 | 0.00 | 72 | 1017.8 |
| 20260502021511 | 59 | 78 | 0.0 | 0.0 | 0.00 | 0.00 | 0.00 | 71 | 1017.1 |
| 20260502020046 | 60 | 333 | 0.0 | 0.0 | 0.00 | 0.00 | 0.00 | 73 | 1017.7 |
| 20260502020008 | 60 | 78 | 0.0 | 0.0 | 0.00 | 0.00 | 0.00 | 72 | 1017.1 |
| 20260502014543 | 60 | 333 | 0.0 | 0.0 | 0.00 | 0.00 | 0.00 | 72 | 1017.7 |
| 20260502014514 | 60 | 78 | 0.0 | 0.0 | 0.00 | 0.00 | 0.00 | 72 | 1016.9 |
| 20260502013042 | 61 | 333 | 0.0 | 0.0 | 0.00 | 0.00 | 0.00 | 70 | 1017.6 |
| 20260502013006 | 61 | 77 | 0.0 | 0.0 | 0.00 | 0.00 | 0.00 | 69 | 1016.8 |
| 20260502011542 | 62 | 333 | 0.0 | 0.0 | 0.00 | 0.00 | 0.00 | 68 | 1017.5 |
| 20260502011508 | 62 | 78 | 0.0 | 0.0 | 0.00 | 0.00 | 0.00 | 67 | 1016.8 |
| 20260502010042 | 62 | 346 | 0.0 | 0.0 | 0.00 | 0.00 | 0.00 | 66 | 1017.4 |
| 20260502010011 | 62 | 90 | 0.0 | 0.0 | 0.00 | 0.00 | 0.00 | 66 | 1016.6 |
| 20260502004541 | 62 | 333 | 0.0 | 0.0 | 0.00 | 0.00 | 0.00 | 67 | 1017.2 |
| 20260502004508 | 62 | 78 | 0.0 | 0.0 | 0.00 | 0.00 | 0.00 | 66 | 1016.4 |
| 20260502003025 | 62 | 314 | 0.0 | 0.0 | 0.00 | 0.00 | 0.00 | 65 | 1016.6 |
| 20260502003008 | 62 | 59 | 0.0 | 0.0 | 0.00 | 0.00 | 0.00 | 64 | 1015.9 |
| 20260502001525 | 63 | 314 | 0.0 | 0.0 | 0.00 | 0.00 | 0.00 | 62 | 1016.5 |
| 20260502001517 | 63 | 59 | 0.0 | 0.0 | 0.00 | 0.00 | 0.00 | 62 | 1015.8 |
| 20260502000014 | 64 | 314 | 0.0 | 0.0 | 0.00 | 0.00 | 0.00 | 60 | 1016.0 |
| 20260502000011 | 64 | 59 | 0.0 | 0.0 | 0.00 | 0.00 | 0.00 | 59 | 1015.3 |
| 20260501234513 | 65 | 59 | 0.0 | 0.0 | 0.00 | 0.00 | 0.00 | 57 | 1014.7 |
| 20260501234510 | 65 | 314 | 0.0 | 0.0 | 0.00 | 0.00 | 0.00 | 57 | 1015.4 |
| 20260501233011 | 66 | 65 | 0.0 | 1.0 | 0.00 | 0.00 | 0.00 | 54 | 1014.4 |
| 20260501233009 | 66 | 320 | 0.0 | 1.0 | 0.00 | 0.00 | 0.00 | 56 | 1015.1 |
| 20260501231556 | 67 | 305 | 0.0 | 1.0 | 0.00 | 0.00 | 0.00 | 55 | 1015.1 |
| 20260501231507 | 67 | 50 | 0.0 | 1.0 | 0.00 | 0.00 | 0.00 | 54 | 1014.4 |
| 20260501230117 | 67 | 314 | 0.0 | 1.0 | 0.00 | 0.00 | 0.00 | 56 | 1015.0 |
| 20260501230014 | 67 | 59 | 0.0 | 1.0 | 0.00 | 0.00 | 0.00 | 54 | 1014.1 |
| 20260501224531 | 67 | 295 | 0.0 | 1.0 | 0.00 | 0.00 | 0.00 | 52 | 1014.8 |
| 20260501224511 | 67 | 38 | 0.0 | 1.0 | 0.00 | 0.00 | 0.00 | 52 | 1013.9 |
| 20260501223012 | 67 | 74 | 0.0 | 1.0 | 0.00 | 0.00 | 0.00 | 51 | 1014.1 |
| 20260501221517 | 67 | 47 | 0.0 | 4.0 | 0.00 | 0.00 | 0.00 | 48 | 1014.1 |
| 20260501221510 | 67 | 302 | 0.0 | 1.0 | 0.00 | 0.00 | 0.00 | 49 | 1014.9 |
| 20260501220023 | 67 | 77 | 0.0 | 3.0 | 0.00 | 0.00 | 0.00 | 47 | 1014.0 |
| 20260501220010 | 67 | 324 | 0.0 | 3.0 | 0.00 | 0.00 | 0.00 | 48 | 1014.8 |
| 20260501214516 | 67 | 105 | 0.0 | 4.0 | 0.00 | 0.00 | 0.00 | 48 | 1014.0 |
| 20260501214508 | 67 | 4 | 0.0 | 2.0 | 0.00 | 0.00 | 0.00 | 47 | 1014.7 |
| 20260501213018 | 67 | 64 | 1.0 | 6.0 | 0.00 | 0.00 | 0.00 | 45 | 1013.8 |
| 20260501213009 | 67 | 319 | 1.0 | 6.0 | 0.00 | 0.00 | 0.00 | 46 | 1014.6 |
| 20260501211520 | 68 | 56 | 0.0 | 5.0 | 0.00 | 0.00 | 0.00 | 46 | 1014.1 |
| 20260501211506 | 68 | 312 | 0.0 | 3.0 | 0.00 | 0.00 | 0.00 | 46 | 1014.8 |
| 20260501210016 | 68 | 74 | 1.0 | 5.0 | 0.00 | 0.00 | 0.00 | 46 | 1014.2 |
| 20260501210006 | 68 | 319 | 1.0 | 5.0 | 0.00 | 0.00 | 0.00 | 46 | 1014.9 |
| 20260501204518 | 68 | 140 | 1.0 | 7.0 | 0.00 | 0.00 | 0.00 | 43 | 1014.3 |
| 20260501204506 | 68 | 346 | 1.0 | 7.0 | 0.00 | 0.00 | 0.00 | 43 | 1015.0 |
| 20260501203015 | 68 | 322 | 0.0 | 6.0 | 0.00 | 0.00 | 0.00 | 45 | 1014.6 |
| 20260501203002 | 68 | 218 | 0.0 | 6.0 | 0.00 | 0.00 | 0.00 | 46 | 1015.2 |
| 20260501201600 | 68 | 311 | 0.0 | 8.0 | 0.00 | 0.00 | 0.00 | 47 | 1015.5 |
| 20260501201524 | 68 | 56 | 0.0 | 8.0 | 0.00 | 0.00 | 0.00 | 46 | 1014.9 |
| 20260501200056 | 68 | 284 | 1.0 | 6.0 | 0.00 | 0.00 | 0.00 | 49 | 1016.2 |
| 20260501200034 | 68 | 90 | 2.0 | 6.0 | 0.00 | 0.00 | 0.00 | 49 | 1015.4 |
| 20260501194600 | 67 | 289 | 0.0 | 9.0 | 0.00 | 0.00 | 0.00 | 50 | 1016.6 |
| 20260501194522 | 67 | 33 | 1.0 | 9.0 | 0.00 | 0.00 | 0.00 | 48 | 1015.7 |
| 20260501193052 | 67 | 328 | 1.0 | 9.0 | 0.00 | 0.00 | 0.00 | 47 | 1016.8 |
| 20260501193019 | 67 | 76 | 3.0 | 9.0 | 0.00 | 0.00 | 0.00 | 47 | 1016.1 |
| 20260501191552 | 67 | 317 | 1.0 | 6.0 | 0.00 | 0.00 | 0.00 | 48 | 1016.9 |
| 20260501191522 | 67 | 52 | 1.0 | 6.0 | 0.00 | 0.00 | 0.00 | 47 | 1016.1 |
| 20260501190052 | 67 | 295 | 0.0 | 5.0 | 0.00 | 0.00 | 0.00 | 50 | 1017.4 |
| 20260501190032 | 67 | 76 | 0.0 | 5.0 | 0.00 | 0.00 | 0.00 | 48 | 1016.6 |
| 20260501184550 | 67 | 284 | 0.0 | 5.0 | 0.00 | 0.00 | 0.00 | 55 | 1017.7 |
| 20260501184520 | 67 | 29 | 0.0 | 5.0 | 0.00 | 0.00 | 0.00 | 54 | 1016.8 |
| 20260501183046 | 65 | 293 | 0.0 | 3.0 | 0.00 | 0.00 | 0.00 | 57 | 1017.7 |
| 20260501183025 | 65 | 47 | 0.0 | 3.0 | 0.00 | 0.00 | 0.00 | 57 | 1017.0 |
| 20260501181550 | 65 | 355 | 0.0 | 2.0 | 0.00 | 0.00 | 0.00 | 56 | 1017.8 |
| 20260501181523 | 65 | 40 | 0.0 | 2.0 | 0.00 | 0.00 | 0.00 | 57 | 1017.1 |
| 20260501180044 | 64 | 332 | 0.0 | 4.0 | 0.00 | 0.00 | 0.00 | 58 | 1017.9 |
| 20260501180022 | 64 | 63 | 0.0 | 5.0 | 0.00 | 0.00 | 0.00 | 56 | 1017.2 |
| 20260501174545 | 65 | 4 | 0.0 | 4.0 | 0.00 | 0.00 | 0.00 | 55 | 1018.2 |
| 20260501174522 | 65 | 66 | 0.0 | 1.0 | 0.00 | 0.00 | 0.00 | 54 | 1017.5 |
| 20260501173042 | 64 | 269 | 0.0 | 3.0 | 0.00 | 0.00 | 0.00 | 56 | 1018.6 |
| 20260501173022 | 64 | 86 | 0.0 | 3.0 | 0.00 | 0.00 | 0.00 | 55 | 1017.8 |
| 20260501171624 | 63 | 356 | 2.0 | 5.0 | 0.00 | 0.00 | 0.00 | 55 | 1019.0 |
| 20260501171524 | 63 | 95 | 2.0 | 5.0 | 0.00 | 0.00 | 0.00 | 54 | 1018.3 |
| 20260501170044 | 63 | 280 | 0.0 | 3.0 | 0.00 | 0.00 | 0.00 | 55 | 1019.2 |
| 20260501170015 | 63 | 25 | 0.0 | 3.0 | 0.00 | 0.00 | 0.00 | 54 | 1018.4 |
| 20260501164548 | 63 | 309 | 0.0 | 3.0 | 0.00 | 0.00 | 0.00 | 55 | 1019.1 |
| 20260501164511 | 63 | 351 | 0.0 | 5.0 | 0.00 | 0.00 | 0.00 | 54 | 1018.3 |